STARLINK-1050

Last updated on Thu Dec 12 2019 00:02:04 GMT+0000 (Coordinated Universal Time)

1 44755U 19074AU 19345.58335648 -.00061644 00000-0 -16043-2 0 9999 2 44755 53.0058 23.6253 0001273 69.4798 89.5410 15.38441907 4716

Satellite not in orbit